Regional Weather Roundup
Issued by NWS

Home | Current Version | Previous Version | Text Only | Print | Product List | Glossary Off
Versions: 1 2 3 4 5 6 7 8 9 10 11 12 13 14 15 16 17 18 19 20 21 22 23 24 25 26 27 28 29 30 31 32 33 34 35 36 37 38 39 40 41 42 43 44 45 46 47 48 49 50

000
ASUS43 KOAX 271910
RWRNE

WEATHER ROUNDUP FOR NEBRASKA
NATIONAL WEATHER SERVICE OMAHA NE
200 PM CDT MON APR 27 2015

NOTES: SATELLITE DATA IS BEING USED TO AUGMENT CLOUD COVER ABOVE
       12000 FEET.
       "FAIR" INDICATES FEW OR NO CLOUDS BELOW 12,000 FEET WITH NO
       SIGNIFICANT WEATHER AND/OR OBSTRUCTIONS TO VISIBILITY.

  * THESE STATIONS DO NOT REPORT WEATHER SUCH AS RAIN...SNOW OR FOG.

NEZ001>004-019>022-054>056-272000-
NEBRASKA PANHANDLE

CITY           SKY/WX    TMP DP  RH WIND       PRES   REMARKS
SCOTTSBLUFF    CLOUDY    52  40  63 W7        30.28F
ALLIANCE       PTSUNNY   56  37  49 CALM      30.25F
CHADRON        PTSUNNY   54  45  71 NE10      30.29S
KIMBALL        CLOUDY    47  38  70 N6        30.27S
SIDNEY         PTSUNNY   53  36  52 N6        30.27F
$$

NEZ057>060-069>072-079>082-272000-
SOUTHWEST NEBRASKA

CITY           SKY/WX    TMP DP  RH WIND       PRES   REMARKS
NORTH PLATTE   PTSUNNY   63  34  33 NE13G18   30.23F
IMPERIAL       PTSUNNY   57  32  38 E9        30.23F
LEXINGTON      PTSUNNY   61  37  41 NE12G17   30.20F
MCCOOK         PTSUNNY   63  33  32 NE16G24   30.20F
OGALLALA       MOSUNNY   57  35  42 E3        30.24S
$$

NEZ005>010-023>029-035>040-094-272000-
NORTH CENTRAL NEBRASKA

CITY           SKY/WX    TMP DP  RH WIND       PRES   REMARKS
VALENTINE      MOSUNNY   66  31  27 VRB6      30.23S
AINSWORTH      SUNNY     64  31  28 E7        30.22F
BROKEN BOW     MOSUNNY   65  34  31 VRB6      30.20F
O`NEILL        MOSUNNY   66  33  29 E12       30.21F
ORD            SUNNY     66  31  27 N8        30.18F
THEDFORD       SUNNY     64  34  32 CALM      30.23F
$$

NEZ041-046>049-061>064-073>077-083>087-272000-
SOUTH CENTRAL NEBRASKA

CITY           SKY/WX    TMP DP  RH WIND       PRES   REMARKS
GRAND ISLAND   MOSUNNY   63  32  31 NE10      30.20F
AURORA         MOSUNNY   63  32  30 NE13      30.19F
HASTINGS       PTSUNNY   62  35  36 NE15G24   30.19F
HEBRON         PTSUNNY   62  29  29 NE9       30.17F
HOLDREGE       PTSUNNY   60  32  34 NE16G24   30.19F
KEARNEY *      PTSUNNY   61  36  39 NE8G17    30.20F
YORK           MOSUNNY   64  32  29 NE12G21   30.18F
$$

NEZ011>018-030>034-042>045-272000-
NORTHEAST NEBRASKA

CITY           SKY/WX    TMP DP  RH WIND       PRES   REMARKS
NORFOLK        SUNNY     67  29  24 N6        30.18F
ALBION         SUNNY     65  32  29 NE8       30.18F
BLAIR          SUNNY     64  28  25 NE15      30.16F
COLUMBUS *     SUNNY     64  32  29 NE9       30.20F
FREMONT        SUNNY     65  30  26 N9        30.18F
TEKAMAH        SUNNY     68  28  22 NE14G21   30.17F
WAYNE          SUNNY     67  23  18 NE9G17    30.19F
$$

NEZ050>053-065>068-078-088>093-272000-
SOUTHEAST NEBRASKA

CITY           SKY/WX    TMP DP  RH WIND       PRES   REMARKS
LINCOLN        SUNNY     66  31  27 NE13      30.18F
OMAHA EPPLEY   MOSUNNY   67  29  24 NE13      30.16F
BEATRICE       MOSUNNY   63  33  32 NE12G18   30.16F
FALLS CITY     MOSUNNY   65  34  31 NE9G22    30.13F
NEBRASKA CITY  SUNNY     64  23  20 E12       30.15F
PLATTSMOUTH    SUNNY     65  25  22 N12G17    30.16F
$$

NEZ044-045-051>053-067-272000-
OMAHA AREA

CITY           SKY/WX    TMP DP  RH WIND       PRES   REMARKS
OMAHA EPPLEY   MOSUNNY   67  29  24 NE13      30.16F
BLAIR          SUNNY     64  28  25 NE15      30.16F
FREMONT        SUNNY     65  30  26 N9        30.18F
MILLARD        SUNNY     64  32  29 E7        30.17F
OFFUTT AFB     SUNNY     65  32  28 N10       30.15F
PLATTSMOUTH    SUNNY     65  25  22 N12G17    30.16F
WAHOO          FAIR      65  26  23 NE12G17   30.17F
$$



USA.gov is the U.S. government's official web portal to all federal, state and local government web resources and services.